period_start,C,m1,H,J0,J1,J2,J3,J4,J5,JA,JB,JC,JD,JJ,JK,JN,#
2016-12-13 00:01:17,0.52,6.25,0.00,19.44,24.43,28.05,13.05,45.51,1028.83,2037.96,2410.04,2293.87,2590.57,527.70,539.62,0.02,0000 0000 0000 0000 000002
2016-12-13 00:06:19,0.55,0.00,0.00,19.44,24.40,27.96,14.88,49.32,1028.82,2040.97,3535.49,3162.10,3585.51,599.73,610.32,0.04,0000 0000 0000 0000 000000
2016-12-13 00:11:20,0.53,0.01,0.00,19.46,24.37,27.96,14.89,49.36,1028.73,2040.95,3528.44,3157.53,3580.42,599.67,610.11,0.09,0000 0000 0000 0000 000000
2016-12-13 00:16:21,0.48,0.03,0.00,19.43,24.35,27.96,15.06,49.45,1028.67,2040.96,3521.91,3153.13,3575.41,600.37,610.77,0.14,0000 0000 0000 0000 000000
2016-12-13 00:21:22,0.41,0.04,0.00,19.42,24.33,27.90,14.94,49.38,1028.58,2040.97,3515.77,3148.84,3570.42,599.68,610.08,0.19,0000 0000 0000 0000 000000
2016-12-13 00:26:24,0.34,0.06,0.00,19.44,24.32,27.93,14.93,49.17,1028.40,2040.98,3509.56,3144.54,3565.39,599.79,610.16,0.24,0000 0000 0000 0000 000000
2016-12-13 00:31:25,0.29,0.07,0.00,19.41,24.30,27.91,14.94,49.20,1028.34,2040.99,3503.56,3140.31,3560.44,599.77,610.08,0.29,0000 0000 0000 0000 000000
2016-12-13 00:36:26,0.27,0.08,0.00,19.39,24.29,27.95,15.02,49.15,1028.34,2040.99,3497.54,3136.15,3555.58,600.05,610.41,0.34,0000 0000 0000 0000 000000
2016-12-13 00:41:27,0.26,0.10,0.00,19.39,24.27,27.95,14.90,49.04,1028.38,2040.99,3491.55,3132.09,3550.76,599.88,610.26,0.39,0000 0000 0000 0000 000000
2016-12-13 00:46:28,0.27,0.11,0.00,19.35,24.26,27.94,14.98,49.13,1028.40,2041.00,3485.48,3127.87,3545.84,600.00,610.46,0.44,0000 0000 0000 0000 000000
2016-12-13 00:51:29,0.27,0.12,0.00,19.34,24.25,27.91,14.99,49.05,1028.34,2041.01,3479.51,3123.68,3541.04,600.02,610.43,0.49,0000 0000 0000 0000 000000
2016-12-13 00:56:31,0.26,0.14,0.00,19.34,24.22,27.93,14.91,49.14,1028.33,2041.03,3473.62,3119.55,3536.28,599.64,610.09,0.54,0000 0000 0000 0000 000000
2016-12-13 01:01:32,0.27,0.15,0.00,19.33,24.21,27.94,14.93,49.17,1028.33,2041.04,3467.65,3115.34,3531.51,599.92,610.39,0.59,0000 0000 0000 0000 000000
2016-12-13 01:06:33,0.27,0.16,0.00,19.30,24.20,27.89,14.98,49.13,1028.28,2041.10,3461.80,3111.18,3526.72,599.95,610.41,0.64,0000 0000 0000 0000 000000
2016-12-13 01:11:34,0.27,0.18,0.00,19.34,24.17,27.96,15.00,49.13,1027.93,2041.08,3455.85,3106.94,3521.79,599.98,610.22,0.69,0000 0000 0000 0000 000000
2016-12-13 01:16:35,0.27,0.19,0.00,19.31,24.17,27.91,14.97,49.06,1027.86,2041.20,3450.04,3102.76,3517.17,599.91,610.14,0.74,0000 0000 0000 0000 000000
2016-12-13 01:21:36,0.29,0.21,0.00,19.28,24.15,27.89,14.95,49.28,1027.89,2041.47,3444.14,3098.60,3512.49,600.05,610.36,0.79,0000 0000 0000 0000 000000
2016-12-13 01:26:37,0.28,0.22,0.00,19.28,24.15,27.82,14.90,49.13,1027.91,2041.55,3438.28,3094.37,3507.58,599.86,610.18,0.84,0000 0000 0000 0000 000000
2016-12-13 01:31:38,0.29,0.23,0.00,19.24,24.12,27.76,15.02,49.18,1027.85,2041.71,3432.38,3090.21,3502.75,600.18,610.56,0.89,0000 0000 0000 0000 000000
2016-12-13 01:36:40,0.28,0.25,0.00,19.23,24.11,27.77,14.99,49.14,1027.83,2041.90,3426.46,3086.01,3497.90,599.89,610.29,0.94,0000 0000 0000 0000 000000
2016-12-13 01:41:41,0.28,0.26,0.00,19.18,24.10,27.81,14.96,49.45,1027.81,2041.85,3420.02,3081.63,3492.86,599.71,610.17,0.99,0000 0000 0000 0000 000000
2016-12-13 01:46:42,0.27,0.28,0.00,19.18,24.08,27.77,14.94,49.13,1027.81,2041.97,3414.28,3077.61,3488.25,599.86,610.31,1.04,0000 0000 0000 0000 000000
2016-12-13 01:51:43,0.27,0.29,0.00,19.20,24.07,27.72,14.93,49.02,1027.82,2041.97,3408.56,3073.50,3483.49,599.79,610.24,1.09,0000 0000 0000 0000 000000
2016-12-13 01:56:45,0.27,0.31,0.00,19.18,24.05,27.70,14.92,48.92,1027.56,2041.97,3402.70,3069.41,3478.72,599.95,610.23,1.14,0000 0000 0000 0000 000000
2016-12-13 02:01:46,0.27,0.32,0.00,19.18,24.04,27.75,15.06,49.04,1027.37,2041.99,3396.98,3065.38,3474.01,600.21,610.41,1.19,0000 0000 0000 0000 000000
2016-12-13 02:06:47,0.27,0.33,0.00,19.18,24.02,27.76,14.95,48.97,1027.36,2041.99,3391.28,3061.19,3469.24,599.85,609.96,1.24,0000 0000 0000 0000 000000
2016-12-13 02:11:48,0.27,0.35,0.00,19.19,24.01,27.78,14.92,48.98,1027.36,2041.99,3385.59,3057.11,3464.53,599.87,610.01,1.29,0000 0000 0000 0000 000000
2016-12-13 02:16:50,0.27,0.36,0.00,19.16,24.00,27.69,14.88,48.89,1027.32,2041.99,3379.70,3052.90,3459.74,599.76,610.00,1.34,0000 0000 0000 0000 000000
2016-12-13 02:21:51,0.27,0.38,0.00,19.16,23.99,27.64,14.91,48.88,1027.22,2041.99,3373.82,3048.68,3454.94,599.81,610.00,1.39,0000 0000 0000 0000 000000
2016-12-13 02:26:52,0.28,0.39,0.00,19.16,23.97,27.73,14.91,48.98,1026.89,2041.99,3367.95,3044.47,3450.16,599.86,609.91,1.44,0000 0000 0000 0000 000000
2016-12-13 02:31:53,0.28,0.40,0.00,19.12,23.97,27.69,14.98,48.86,1026.91,2041.99,3361.89,3040.14,3445.20,600.24,610.25,1.49,0000 0000 0000 0000 000000
2016-12-13 02:36:55,0.29,0.42,0.00,19.11,23.96,27.80,14.94,48.94,1026.89,2042.00,3355.66,3035.69,3440.16,599.82,609.99,1.54,0000 0000 0000 0000 000000
2016-12-13 02:41:56,0.31,0.43,0.00,19.12,23.95,27.69,15.02,49.02,1026.89,2042.00,3349.27,3031.09,3434.90,599.98,610.11,1.59,0000 0000 0000 0000 000000
2016-12-13 02:46:57,0.31,0.45,0.00,19.12,23.95,27.66,14.95,48.99,1026.85,2042.00,3342.83,3026.45,3429.56,600.21,610.20,1.64,0000 0000 0000 0000 000000
2016-12-13 02:51:58,0.31,0.47,0.00,19.13,23.95,27.64,14.97,49.15,1026.72,2042.01,3336.42,3021.86,3424.27,600.09,609.97,1.69,0000 0000 0000 0000 000000
2016-12-13 02:56:59,0.31,0.48,0.00,19.14,23.94,27.78,14.93,49.11,1026.74,2042.01,3329.99,3017.23,3418.95,600.07,610.04,1.74,0000 0000 0000 0000 000000
2016-12-13 03:02:00,0.32,0.50,0.00,19.14,23.93,27.74,14.92,49.09,1026.67,2042.02,3323.46,3012.43,3413.49,599.79,609.67,1.79,0000 0000 0000 0000 000000
2016-12-13 03:07:02,0.32,0.51,0.00,19.14,23.92,27.68,14.94,49.02,1026.76,2042.04,3316.77,3007.67,3407.89,600.01,609.96,1.85,0000 0000 0000 0000 000000
2016-12-13 03:12:03,0.32,0.53,0.00,19.16,23.92,27.70,14.86,49.11,1026.50,2042.04,3310.15,3002.93,3402.29,599.87,609.44,1.90,0000 0000 0000 0000 000000
2016-12-13 03:17:04,0.31,0.55,0.00,19.18,23.92,27.72,15.01,49.33,1026.38,2042.06,3303.72,2998.31,3396.95,600.48,610.10,1.95,0000 0000 0000 0000 000000
2016-12-13 03:22:06,0.32,0.56,0.00,19.17,23.92,27.72,14.98,49.39,1026.38,2042.06,3297.10,2993.51,3391.56,600.14,609.77,2.00,0000 0000 0000 0000 000000
2016-12-13 03:27:07,0.33,0.58,0.00,19.15,23.92,27.70,14.92,49.22,1026.38,2042.07,3290.30,2988.65,3386.07,599.90,609.70,2.05,0000 0000 0000 0000 000000
2016-12-13 03:32:08,0.33,0.60,0.00,19.12,23.92,27.72,14.99,49.44,1026.38,2042.09,3283.56,2983.75,3380.44,599.81,609.50,2.10,0000 0000 0000 0000 000000
2016-12-13 03:37:10,0.33,0.61,0.00,19.10,23.92,27.72,14.93,49.38,1026.36,2042.09,3276.89,2978.87,3374.85,599.95,609.73,2.15,0000 0000 0000 0000 000000
2016-12-13 03:42:11,0.32,0.63,0.00,19.10,23.92,27.78,14.94,49.31,1026.25,2042.04,3270.20,2974.05,3369.27,599.93,609.60,2.20,0000 0000 0000 0000 000000
2016-12-13 03:47:13,0.32,0.65,0.00,19.12,23.92,27.75,14.98,49.29,1026.25,2042.03,3263.74,2969.25,3363.81,600.20,609.97,2.25,0000 0000 0000 0000 000000
2016-12-13 03:52:14,0.32,0.66,0.00,19.09,23.92,27.73,14.95,49.22,1026.04,2042.05,3257.42,2964.57,3358.46,600.08,609.80,2.30,0000 0000 0000 0000 000000
2016-12-13 03:57:15,0.33,0.68,0.00,19.10,23.92,27.69,14.91,49.32,1025.93,2042.02,3250.91,2959.84,3353.02,600.63,610.17,2.35,0000 0000 0000 0000 000000
2016-12-13 04:02:16,0.32,0.69,0.00,19.11,23.92,27.71,14.98,49.50,1025.89,2042.04,3244.43,2955.12,3347.65,600.12,609.56,2.40,0000 0000 0000 0000 000000
2016-12-13 04:07:17,0.32,0.71,0.00,19.11,23.92,27.80,14.93,49.52,1025.65,2042.02,3237.84,2950.34,3342.19,599.81,609.07,2.45,0000 0000 0000 0000 000000
2016-12-13 04:12:18,0.34,0.73,0.00,19.11,23.92,27.77,15.01,49.72,1025.41,2042.04,3231.11,2945.51,3336.65,599.89,609.18,2.50,0000 0000 0000 0000 000000
2016-12-13 04:17:19,0.34,0.74,0.00,19.13,23.92,27.81,14.90,49.83,1025.39,2042.05,3224.28,2940.59,3330.93,599.68,608.88,2.55,0000 0000 0000 0000 000000
2016-12-13 04:22:20,0.36,0.76,0.00,19.11,23.92,27.75,15.00,49.53,1025.34,2042.07,3217.36,2935.43,3325.07,600.06,609.22,2.60,0000 0000 0000 0000 000000
2016-12-13 04:27:21,0.36,0.78,0.00,19.12,23.92,27.73,14.90,49.75,1025.20,2042.13,3210.39,2930.24,3319.25,599.72,608.76,2.65,0000 0000 0000 0000 000000
2016-12-13 04:32:23,0.34,0.80,0.00,19.11,23.92,27.83,15.05,49.79,1025.17,2042.10,3203.64,2925.21,3313.37,600.36,609.35,2.70,0000 0000 0000 0000 000000
2016-12-13 04:37:24,0.35,0.82,0.00,19.08,23.92,27.77,14.94,49.70,1025.30,2042.10,3196.82,2920.17,3307.55,599.78,609.02,2.75,0000 0000 0000 0000 000000
2016-12-13 04:42:26,0.36,0.83,0.00,19.05,23.92,27.79,14.92,49.77,1025.31,2042.18,3189.82,2915.07,3301.70,600.00,609.15,2.80,0000 0000 0000 0000 000000
2016-12-13 04:47:27,0.36,0.85,0.00,19.05,23.92,27.72,14.99,49.91,1025.40,2042.11,3182.75,2909.86,3295.70,600.10,609.41,2.85,0000 0000 0000 0000 000000
2016-12-13 04:52:28,0.37,0.87,0.00,19.05,23.91,27.76,14.93,49.97,1025.37,2042.15,3175.68,2904.68,3289.76,599.84,609.03,2.90,0000 0000 0000 0000 000000
2016-12-13 04:57:29,0.36,0.89,0.00,19.01,23.90,27.75,14.91,49.94,1025.09,2042.10,3168.55,2899.47,3283.76,599.70,608.86,2.95,0000 0000 0000 0000 000000
2016-12-13 05:02:30,0.40,0.91,0.00,19.01,23.90,27.75,14.91,50.07,1024.97,2042.24,3161.23,2894.18,3277.71,599.89,608.96,3.00,0000 0000 0000 0000 000000
2016-12-13 05:07:32,0.40,0.93,0.00,19.03,23.90,27.70,15.00,50.19,1024.89,2042.43,3153.86,2888.81,3271.60,600.26,609.29,3.05,0000 0000 0000 0000 000000
2016-12-13 05:12:33,0.38,0.95,0.00,18.97,23.90,27.75,14.97,50.00,1024.75,2042.60,3146.66,2883.47,3265.54,599.91,608.94,3.10,0000 0000 0000 0000 000000
2016-12-13 05:17:34,0.39,0.97,0.00,18.92,23.90,27.71,15.01,50.05,1024.91,2042.74,3139.28,2878.23,3259.51,600.15,609.50,3.15,0000 0000 0000 0000 000000
2016-12-13 05:22:36,0.38,0.99,0.00,18.90,23.88,27.69,14.98,49.93,1024.96,2042.92,3132.38,2873.11,3253.42,600.13,609.50,3.20,0000 0000 0000 0000 000000
2016-12-13 05:27:37,0.38,1.01,0.00,18.87,23.87,27.70,14.99,50.02,1025.00,2042.89,3125.14,2867.73,3247.34,600.10,609.42,3.25,0000 0000 0000 0000 000000
2016-12-13 05:32:39,0.39,1.03,0.00,18.86,23.87,27.67,14.94,50.16,1025.01,2042.92,3117.79,2862.36,3241.10,600.03,609.54,3.30,0000 0000 0000 0000 000000
2016-12-13 05:37:40,0.39,1.05,0.00,18.88,23.86,27.64,14.98,50.14,1024.95,2042.93,3110.50,2857.00,3234.88,600.10,609.48,3.35,0000 0000 0000 0000 000000
2016-12-13 05:42:41,0.38,1.07,0.00,18.89,23.85,27.64,14.94,50.05,1024.92,2042.95,3103.25,2851.69,3228.73,599.86,609.28,3.40,0000 0000 0000 0000 000000
2016-12-13 05:47:42,0.39,1.09,0.00,18.85,23.84,27.59,14.96,49.98,1024.80,2042.98,3095.92,2846.31,3222.62,599.83,609.30,3.45,0000 0000 0000 0000 000000
2016-12-13 05:52:44,0.40,1.11,0.00,18.84,23.82,27.59,14.92,50.13,1024.55,2042.98,3088.52,2840.92,3216.44,599.95,609.22,3.50,0000 0000 0000 0000 000000
2016-12-13 05:57:45,0.39,1.13,0.00,18.85,23.82,27.56,14.93,50.00,1024.74,2042.97,3081.26,2835.54,3210.25,599.77,609.13,3.55,0000 0000 0000 0000 000000
2016-12-13 06:02:46,0.38,1.15,0.00,18.81,23.81,27.55,14.90,49.90,1024.90,2042.97,3074.14,2830.29,3204.17,599.71,609.21,3.60,0000 0000 0000 0000 000000
2016-12-13 06:07:47,0.38,1.17,0.00,18.79,23.80,27.55,14.96,49.88,1024.91,2042.99,3067.21,2825.09,3198.25,600.12,609.76,3.65,0000 0000 0000 0000 000000
2016-12-13 06:12:48,0.38,1.19,0.00,18.81,23.80,27.54,14.94,49.91,1024.91,2042.99,3060.17,2819.92,3192.36,599.92,609.35,3.70,0000 0000 0000 0000 000000
2016-12-13 06:17:50,0.38,1.20,0.00,18.82,23.77,27.58,14.97,49.98,1024.92,2042.98,3053.11,2814.79,3186.33,599.75,609.28,3.75,0000 0000 0000 0000 000000
2016-12-13 06:22:51,0.38,1.22,0.00,18.82,23.77,27.51,14.99,50.02,1024.92,2042.99,3046.08,2809.66,3180.37,600.08,609.58,3.80,0000 0000 0000 0000 000000
2016-12-13 06:27:52,0.39,1.24,0.00,18.82,23.76,27.52,15.00,50.13,1024.92,2042.99,3038.99,2804.45,3174.48,600.24,609.71,3.85,0000 0000 0000 0000 000000
2016-12-13 06:32:54,0.39,1.26,0.00,18.84,23.75,27.49,14.96,50.19,1024.92,2042.99,3031.84,2799.20,3168.45,599.94,609.40,3.90,0000 0000 0000 0000 000000
2016-12-13 06:37:55,0.39,1.28,0.00,18.82,23.75,27.47,14.96,50.15,1024.92,2042.99,3024.65,2793.88,3162.37,599.75,609.22,3.95,0000 0000 0000 0000 000000
2016-12-13 06:42:56,0.40,1.30,0.00,18.81,23.75,27.53,14.92,49.92,1024.92,2042.99,3017.52,2788.57,3156.29,599.97,609.49,4.00,0000 0000 0000 0000 000000
2016-12-13 06:47:57,0.39,1.32,0.00,18.84,23.75,27.48,14.97,50.02,1024.93,2042.99,3010.38,2783.30,3150.23,600.00,609.45,4.05,0000 0000 0000 0000 000000
2016-12-13 06:52:58,0.39,1.34,0.00,18.85,23.74,27.54,15.01,50.05,1024.92,2042.99,3003.41,2778.03,3144.23,600.28,609.51,4.10,0000 0000 0000 0000 000000
2016-12-13 06:58:00,0.41,1.36,0.00,18.83,23.74,27.56,14.95,50.13,1024.92,2042.99,2996.15,2772.68,3138.16,599.84,609.33,4.15,0000 0000 0000 0000 000000
2016-12-13 07:03:01,0.41,1.38,0.00,18.88,23.74,27.55,14.94,50.30,1024.92,2042.99,2988.83,2767.28,3132.13,599.79,609.16,4.21,0000 0000 0000 0000 000000
2016-12-13 07:08:02,0.42,1.41,0.00,18.88,23.74,27.57,14.97,50.31,1024.92,2042.99,2981.47,2761.79,3125.84,599.96,609.31,4.26,0000 0000 0000 0000 000000
2016-12-13 07:13:03,0.42,1.43,0.00,18.92,23.74,27.53,14.94,50.20,1024.92,2042.99,2974.06,2756.23,3119.45,599.93,609.17,4.31,0000 0000 0000 0000 000000
2016-12-13 07:18:04,0.43,1.45,0.00,18.93,23.75,27.54,14.90,50.18,1024.92,2042.99,2966.52,2750.74,3113.00,599.96,609.23,4.36,0000 0000 0000 0000 000000
2016-12-13 07:23:06,0.43,1.47,0.00,18.97,23.75,27.52,15.01,50.23,1024.92,2042.99,2958.99,2745.22,3106.63,600.09,609.24,4.41,0000 0000 0000 0000 000000
2016-12-13 07:28:07,0.43,1.49,0.00,19.00,23.75,27.56,15.01,50.22,1024.92,2042.99,2951.52,2739.61,3100.13,600.25,609.40,4.46,0000 0000 0000 0000 000000
2016-12-13 07:33:08,0.44,1.51,0.00,19.00,23.75,27.58,14.91,50.09,1024.92,2042.99,2944.03,2733.93,3093.61,600.23,609.46,4.51,0000 0000 0000 0000 000000
2016-12-13 07:38:09,0.46,1.54,0.00,19.03,23.76,27.59,14.90,50.19,1024.85,2042.99,2936.07,2728.01,3086.91,599.73,608.73,4.56,0000 0000 0000 0000 000000
2016-12-13 07:43:11,0.45,1.56,0.00,19.06,23.77,27.56,14.90,50.02,1024.81,2042.99,2927.92,2722.06,3080.12,599.98,608.96,4.61,0000 0000 0000 0000 000000
2016-12-13 07:48:12,0.44,1.58,0.00,19.08,23.77,27.60,14.99,50.25,1024.78,2042.99,2920.40,2716.39,3073.66,599.97,608.87,4.66,0000 0000 0000 0000 000000
2016-12-13 07:53:13,0.44,1.61,0.00,19.10,23.77,27.60,14.94,50.09,1024.65,2042.98,2912.89,2710.74,3067.32,600.10,608.96,4.71,0000 0000 0000 0000 000000
2016-12-13 07:58:14,0.43,1.63,0.00,19.16,23.80,27.59,14.96,50.13,1024.64,2042.98,2905.52,2705.24,3061.02,599.99,608.55,4.76,0000 0000 0000 0000 000000
2016-12-13 08:03:16,0.42,1.65,0.00,19.15,23.80,27.59,14.93,50.08,1024.69,2042.97,2898.28,2699.77,3054.79,599.92,608.61,4.81,0000 0000 0000 0000 000000
2016-12-13 08:08:17,0.43,1.67,0.00,19.18,23.82,27.60,14.94,50.13,1024.62,2042.94,2890.96,2694.29,3048.50,599.85,608.45,4.86,0000 0000 0000 0000 000000
2016-12-13 08:13:18,0.42,1.69,0.00,19.23,23.82,27.63,14.94,50.11,1024.75,2042.88,2883.67,2688.84,3042.21,600.26,608.84,4.91,0000 0000 0000 0000 000000
2016-12-13 08:18:19,0.41,1.71,0.00,19.25,23.85,27.62,14.92,50.14,1024.72,2042.82,2876.62,2683.46,3035.91,599.54,607.98,4.96,0000 0000 0000 0000 000000
2016-12-13 08:23:20,0.40,1.73,0.00,19.27,23.86,27.64,14.97,50.15,1024.65,2042.47,2869.38,2677.95,3029.64,600.05,608.46,5.01,0000 0000 0000 0000 000000
2016-12-13 08:28:21,0.42,1.75,0.00,19.30,23.88,27.66,14.93,50.23,1024.65,2042.27,2862.16,2672.54,3023.41,600.20,608.54,5.06,0000 0000 0000 0000 000000
2016-12-13 08:33:23,0.42,1.78,0.00,19.29,23.90,27.68,15.00,50.27,1024.54,2042.11,2854.85,2667.06,3017.10,600.00,608.26,5.11,0000 0000 0000 0000 000000
2016-12-13 08:38:24,0.44,1.80,0.00,19.38,23.92,27.70,14.93,50.25,1024.47,2042.04,2847.59,2661.55,3010.80,600.05,608.00,5.16,0000 0000 0000 0000 000000
2016-12-13 08:43:26,0.44,1.82,0.00,19.42,23.95,27.71,14.90,50.26,1024.43,2042.02,2840.30,2656.05,3004.67,599.96,607.92,5.21,0000 0000 0000 0000 000000
2016-12-13 08:48:27,0.44,1.84,0.00,19.42,23.97,27.77,14.91,50.33,1024.34,2042.00,2833.05,2650.55,2998.43,599.70,607.62,5.26,0000 0000 0000 0000 000000
2016-12-13 08:53:28,0.45,1.87,0.00,19.49,24.00,27.79,14.93,50.58,1024.02,2042.00,2825.81,2644.90,2992.09,600.11,607.76,5.31,0000 0000 0000 0000 000000
2016-12-13 08:58:29,0.43,1.89,0.00,19.51,24.03,27.82,14.88,50.48,1023.95,2042.00,2818.93,2639.59,2986.02,599.97,607.52,5.36,0000 0000 0000 0000 000000
2016-12-13 09:03:30,0.41,1.91,0.00,19.55,24.06,27.84,14.91,50.65,1023.96,2041.99,2812.33,2634.52,2980.20,600.00,607.42,5.41,0000 0000 0000 0000 000000
2016-12-13 09:08:32,0.40,1.93,0.00,19.57,24.09,27.88,14.89,50.75,1023.96,2041.97,2805.75,2629.56,2974.51,599.92,607.32,5.46,0000 0000 0000 0000 000000
2016-12-13 09:13:33,0.39,1.95,0.00,19.61,24.11,27.92,14.84,50.62,1023.94,2041.94,2799.30,2624.66,2968.81,599.89,607.23,5.51,0000 0000 0000 0000 000000
2016-12-13 09:18:34,0.35,1.97,0.00,19.63,24.14,27.94,14.93,50.61,1023.94,2041.62,2792.93,2619.94,2963.22,600.03,607.27,5.56,0000 0000 0000 0000 000000
2016-12-13 09:23:36,0.36,1.99,0.00,19.64,24.17,27.98,14.94,50.71,1023.95,2041.24,2786.66,2615.15,2957.72,600.42,607.66,5.61,0000 0000 0000 0000 000000
2016-12-13 09:28:37,0.38,2.01,0.00,19.61,24.19,28.03,14.90,50.64,1024.13,2041.06,2780.44,2610.45,2952.30,600.02,607.47,5.66,0000 0000 0000 0000 000000
2016-12-13 09:33:38,0.40,2.03,0.00,19.64,24.21,28.07,14.85,50.60,1024.17,2041.01,2774.25,2605.71,2946.88,599.78,607.05,5.71,0000 0000 0000 0000 000000
2016-12-13 09:38:39,0.38,2.04,0.00,19.68,24.23,28.07,14.87,50.42,1024.31,2041.00,2768.17,2601.06,2941.60,600.05,607.40,5.76,0000 0000 0000 0000 000000
2016-12-13 09:43:41,0.38,2.06,0.00,19.64,24.25,28.11,14.88,50.55,1024.43,2041.00,2762.17,2596.52,2936.36,599.85,607.35,5.81,0000 0000 0000 0000 000000
2016-12-13 09:48:42,0.38,2.08,0.00,19.62,24.27,28.15,15.00,50.51,1024.43,2040.98,2756.15,2591.93,2931.15,600.23,607.79,5.86,0000 0000 0000 0000 000000
2016-12-13 09:53:43,0.37,2.10,0.00,19.59,24.27,28.15,14.83,50.51,1024.33,2040.97,2750.28,2587.40,2925.99,599.96,607.44,5.91,0000 0000 0000 0000 000000
2016-12-13 09:58:44,0.38,2.12,0.00,19.63,24.30,28.14,14.89,50.59,1024.32,2040.95,2744.48,2582.91,2920.84,599.82,607.27,5.96,0000 0000 0000 0000 000000
2016-12-13 10:03:46,0.36,2.14,0.00,19.63,24.31,28.21,14.91,50.47,1024.42,2040.88,2738.60,2578.45,2915.61,599.69,607.17,6.01,0000 0000 0000 0000 000000
2016-12-13 10:08:47,0.33,2.16,0.00,19.64,24.32,28.20,14.94,50.46,1024.43,2040.67,2733.02,2574.14,2910.65,599.78,607.28,6.06,0000 0000 0000 0000 000000
2016-12-13 10:13:48,0.33,2.18,0.00,19.67,24.33,28.24,14.92,50.44,1024.60,2040.40,2727.43,2569.89,2905.78,600.10,607.65,6.11,0000 0000 0000 0000 000000
2016-12-13 10:18:49,0.33,2.19,0.00,19.66,24.35,28.26,14.91,50.46,1024.47,2040.11,2721.90,2565.69,2900.88,600.14,607.67,6.16,0000 0000 0000 0000 000000
2016-12-13 10:23:51,0.35,2.21,0.00,19.67,24.36,28.24,14.89,50.45,1024.44,2040.08,2716.33,2561.50,2896.02,599.90,607.40,6.21,0000 0000 0000 0000 000000
2016-12-13 10:28:52,0.35,2.23,0.00,19.69,24.37,28.27,14.91,50.52,1024.53,2040.04,2710.90,2557.56,2891.23,599.89,607.35,6.26,0000 0000 0000 0000 000000
2016-12-13 10:33:53,0.35,2.25,0.00,19.72,24.38,28.28,14.88,50.42,1024.89,2040.02,2705.55,2553.45,2886.48,599.81,607.43,6.31,0000 0000 0000 0000 000000
2016-12-13 10:38:54,0.35,2.26,0.00,19.74,24.40,28.25,14.95,50.51,1024.80,2040.01,2700.06,2549.31,2881.75,599.88,607.36,6.36,0000 0000 0000 0000 000000
2016-12-13 10:43:56,0.37,2.28,0.00,19.75,24.40,28.29,14.93,50.64,1024.85,2040.00,2694.28,2545.01,2877.00,599.75,607.28,6.41,0000 0000 0000 0000 000000
2016-12-13 10:48:57,0.36,2.30,0.00,19.72,24.42,28.27,14.93,50.43,1024.88,2040.00,2688.82,2540.81,2872.18,600.13,607.65,6.46,0000 0000 0000 0000 000000
2016-12-13 10:53:58,0.36,2.32,0.00,19.73,24.42,28.27,14.88,50.52,1024.53,2040.00,2683.41,2536.63,2867.38,600.16,607.56,6.51,0000 0000 0000 0000 000000
2016-12-13 10:59:00,0.35,2.34,0.00,19.78,24.44,28.26,14.84,50.45,1024.45,2039.99,2678.04,2532.50,2862.68,599.92,607.08,6.56,0000 0000 0000 0000 000000
2016-12-13 11:04:01,0.36,2.35,0.00,19.78,24.45,28.30,14.96,50.49,1024.46,2039.98,2672.65,2528.46,2857.94,600.09,607.32,6.62,0000 0000 0000 0000 000000
2016-12-13 11:09:03,0.36,2.37,0.00,19.83,24.45,28.28,14.92,50.43,1024.47,2039.99,2667.33,2524.34,2853.28,599.99,607.12,6.67,0000 0000 0000 0000 000000
2016-12-13 11:14:04,0.35,2.39,0.00,19.83,24.47,28.32,14.86,50.33,1024.47,2039.98,2662.14,2520.30,2848.61,599.94,607.02,6.72,0000 0000 0000 0000 000000
2016-12-13 11:19:06,0.35,2.41,0.00,19.80,24.47,28.32,14.78,50.36,1024.48,2039.94,2656.81,2516.28,2843.98,599.73,606.93,6.77,0000 0000 0000 0000 000000
2016-12-13 11:24:07,0.35,2.43,0.00,19.82,24.47,28.35,14.84,50.40,1024.54,2039.86,2651.43,2512.21,2839.38,599.80,607.01,6.82,0000 0000 0000 0000 000000
2016-12-13 11:29:08,0.33,2.45,0.00,19.88,24.49,28.31,14.90,50.31,1024.91,2039.77,2646.17,2508.22,2834.73,599.76,607.15,6.87,0000 0000 0000 0000 000000
2016-12-13 11:34:09,0.31,2.46,0.00,19.89,24.50,28.36,14.92,50.18,1024.92,2039.40,2641.04,2504.21,2830.07,600.03,607.40,6.92,0000 0000 0000 0000 000000
2016-12-13 11:39:11,0.34,2.48,0.00,19.92,24.50,28.33,14.87,50.25,1024.89,2039.19,2635.72,2500.19,2825.47,600.09,607.32,6.97,0000 0000 0000 0000 000000
2016-12-13 11:44:12,0.34,2.50,0.00,19.93,24.51,28.31,14.93,50.21,1024.67,2039.12,2630.49,2496.24,2820.90,600.05,607.02,7.02,0000 0000 0000 0000 000000
2016-12-13 11:49:13,0.35,2.51,0.00,19.94,24.52,28.34,14.93,50.39,1024.79,2039.04,2625.28,2492.39,2816.39,600.20,607.26,7.07,0000 0000 0000 0000 000000
2016-12-13 11:54:14,0.35,2.53,0.00,20.01,24.53,28.33,14.88,50.40,1024.92,2039.01,2620.25,2488.35,2811.84,599.90,606.98,7.12,0000 0000 0000 0000 000000
2016-12-13 11:59:16,0.33,2.55,0.00,20.02,24.55,28.34,14.86,50.31,1024.96,2039.00,2615.31,2484.47,2807.37,599.88,606.79,7.17,0000 0000 0000 0000 000000
2016-12-13 12:04:17,0.32,2.56,0.00,20.02,24.56,28.42,14.91,50.27,1024.92,2039.00,2610.61,2480.83,2803.17,599.83,606.86,7.22,0000 0000 0000 0000 000000
2016-12-13 12:09:18,0.32,2.58,0.00,20.06,24.57,28.41,14.95,50.29,1025.02,2038.99,2605.95,2477.19,2799.01,600.02,606.87,7.27,0000 0000 0000 0000 000000
2016-12-13 12:14:19,0.33,2.60,0.00,20.08,24.58,28.41,14.87,50.24,1025.06,2038.98,2601.23,2473.63,2794.85,600.00,607.01,7.32,0000 0000 0000 0000 000000
2016-12-13 12:19:21,0.32,2.61,0.00,20.11,24.60,28.41,14.86,50.39,1025.17,2038.98,2596.61,2470.01,2790.70,599.91,606.88,7.37,0000 0000 0000 0000 000000
2016-12-13 12:24:22,0.33,2.63,0.00,20.12,24.61,28.43,14.96,50.49,1025.30,2038.96,2591.90,2466.40,2786.59,600.00,607.07,7.42,0000 0000 0000 0000 000000
2016-12-13 12:29:23,0.31,2.65,0.00,20.14,24.62,28.45,14.91,50.50,1025.32,2038.94,2587.26,2462.86,2782.51,600.25,607.27,7.47,0000 0000 0000 0000 000000
2016-12-13 12:34:25,0.33,2.66,0.00,20.19,24.65,28.47,14.85,50.45,1025.38,2038.88,2582.50,2459.17,2778.37,599.78,606.76,7.52,0000 0000 0000 0000 000000
2016-12-13 12:39:26,0.32,2.68,0.00,20.18,24.66,28.50,14.89,50.46,1025.21,2038.81,2577.89,2455.62,2774.25,600.10,606.93,7.57,0000 0000 0000 0000 000000
2016-12-13 12:44:27,0.25,2.69,0.00,20.22,24.68,28.51,14.84,50.32,1025.14,2038.25,2573.42,2452.06,2770.13,599.94,606.71,7.62,0000 0000 0000 0000 000000
2016-12-13 12:49:29,0.29,2.71,0.00,20.28,24.70,28.54,14.89,50.33,1025.16,2038.04,2569.08,2448.71,2766.27,600.06,606.73,7.67,0000 0000 0000 0000 000000
2016-12-13 12:54:30,0.31,2.72,0.00,20.28,24.71,28.57,14.89,50.42,1025.14,2038.02,2564.79,2445.41,2762.50,600.09,606.68,7.72,0000 0000 0000 0000 000000
2016-12-13 12:59:32,0.29,2.74,0.00,20.31,24.73,28.57,14.89,50.28,1025.39,2038.00,2560.63,2442.15,2758.74,600.00,606.66,7.77,0000 0000 0000 0000 000000